Date String (YYYY-MM-DD hh:mm:ss) UTC,Instrument flags,Ambient pressure (hPa),Sample flow (lpm),Bypass flow (lpm),Sample temperature (°C),Ambient temperature (°C),ASC tube jacket temperature (°C),LED temperature (°C),Box temperature (°C),Sample RH (%),Span deviation,Mass concentration (μg/m³),Mass concentration (μg/m³),Mass concentration (μg/m³)
DateTimeUTC,F1_M11,P_M11,Q1_M11,Q2_M11,T1_M11,T2_M11,T3_M11,T4_M11,T5_M11,U1_M11,ZSPAN_M11,X0_M11,X2_M11,X1_M11
2023-03-11 02:00:00,,0812.5,5.00,0.00,23.7,22.2,00.0,32.5,25.5,18.2,-000.6,0018.49,0008.10,0006.87
2023-03-11 02:01:00,,0812.5,4.99,0.00,23.7,22.2,00.0,32.5,25.5,18.3,0000.2,0018.50,0007.96,0006.76
2023-03-11 02:02:00,,0812.6,5.00,0.00,23.7,22.2,00.0,32.5,25.5,18.2,0001.3,0017.42,0007.68,0006.51
2023-03-11 02:03:00,,0812.7,4.99,0.00,23.7,22.2,00.0,32.5,25.5,18.2,0001.0,0017.20,0007.21,0006.16
2023-03-11 02:04:00,,0812.7,5.00,0.00,23.7,22.2,00.0,32.5,25.5,18.1,0000.2,0016.07,0006.72,0005.78
2023-03-11 02:05:00,,0812.7,5.00,0.00,23.7,22.2,00.0,32.5,25.5,18.0,0000.3,0015.31,0006.32,0005.47
2023-03-11 02:06:00,,0812.8,5.00,0.00,23.7,22.2,00.0,32.5,25.5,17.8,0000.3,0014.63,0005.91,0005.14
2023-03-11 02:07:00,,0812.8,5.00,0.00,23.7,22.2,00.0,32.5,25.5,17.8,0000.3,0013.62,0005.47,0004.78
2023-03-11 02:08:00,,0812.8,5.00,0.00,23.7,22.2,00.0,32.5,25.5,17.8,-000.1,0011.85,0005.06,0004.45
2023-03-11 02:09:00,,0812.7,5.00,0.00,23.7,22.2,00.0,32.5,25.5,17.9,-000.0,0011.48,0004.76,0004.19
2023-03-11 02:10:00,,0812.6,5.00,0.00,23.7,22.2,00.0,32.5,25.5,17.9,0000.4,0011.03,0004.60,0004.08
2023-03-11 02:11:00,,0812.6,5.00,0.00,23.7,22.2,00.0,32.5,25.5,17.7,0000.1,0009.81,0004.31,0003.87
2023-03-11 02:12:00,,0812.5,5.00,0.00,23.7,22.3,00.0,32.5,25.5,17.4,-000.0,0008.75,0003.98,0003.59
2023-03-11 02:13:00,,0812.5,5.00,0.00,23.7,22.2,00.0,32.5,25.5,17.1,-000.2,0008.17,0003.65,0003.32
2023-03-11 02:14:00,,0812.5,5.00,0.00,23.7,22.2,00.0,32.5,25.5,17.1,-001.0,0006.51,0003.31,0002.93
2023-03-11 02:15:00,,0812.5,4.99,0.00,23.7,22.2,00.0,32.5,25.5,17.3,0000.1,0005.16,0003.01,0002.49
2023-03-11 02:16:00,,0812.4,4.99,0.00,23.7,22.2,00.0,32.5,25.5,17.5,0000.0,0004.95,0002.76,0002.18
2023-03-11 02:17:00,,0812.4,5.00,0.00,23.7,22.2,00.0,32.5,25.5,17.4,0000.0,0004.71,0002.55,0001.99
2023-03-11 02:18:00,,0812.4,5.01,0.00,23.7,22.1,00.0,32.5,25.5,17.6,0000.0,0004.17,0002.41,0001.85
2023-03-11 02:19:00,,0812.5,5.00,0.00,23.7,22.1,00.0,32.5,25.5,17.5,0000.0,0003.71,0002.30,0001.74
2023-03-11 02:20:00,,0812.6,5.01,0.00,23.7,22.1,00.0,32.5,25.5,17.7,0000.0,0003.13,0002.05,0001.51
2023-03-11 02:21:00,,0812.6,5.01,0.00,23.7,22.1,00.0,32.5,25.5,17.6,0000.0,0002.75,0001.81,0001.30
2023-03-11 02:22:00,,0812.5,5.00,0.00,23.7,22.1,00.0,32.5,25.5,17.6,0000.0,0002.64,0001.72,0001.22
2023-03-11 02:23:00,,0812.5,4.99,0.00,23.7,22.1,00.0,32.5,25.5,17.6,0000.0,0002.71,0001.70,0001.18
2023-03-11 02:24:00,,0812.5,4.99,0.00,23.7,22.1,00.0,32.5,25.5,17.6,0000.0,0002.84,0001.76,0001.23
2023-03-11 02:25:00,,0812.4,4.99,0.00,23.7,22.1,00.0,32.5,25.5,17.6,0000.0,0003.02,0001.86,0001.32
2023-03-11 02:26:00,,0812.3,5.00,0.00,23.7,22.2,00.0,32.5,25.5,17.6,0000.0,0003.26,0001.94,0001.37
2023-03-11 02:27:00,,0812.3,5.00,0.00,23.7,22.2,00.0,32.5,25.5,17.7,0000.0,0003.18,0001.92,0001.40
2023-03-11 02:28:00,,0812.4,5.01,0.00,23.7,22.2,00.0,32.5,25.5,17.7,0000.0,0003.30,0001.96,0001.43
2023-03-11 02:29:00,,0812.4,4.99,0.00,23.7,22.2,00.0,32.5,25.5,17.7,0000.0,0003.44,0002.02,0001.48
2023-03-11 02:30:00,,0812.3,5.01,0.00,23.7,22.2,00.0,32.5,25.5,17.1,0000.0,0003.42,0001.97,0001.47
2023-03-11 02:31:00,,0812.4,5.00,0.00,23.7,22.2,00.0,32.5,25.5,16.8,0000.0,0003.56,0001.79,0001.35
2023-03-11 02:32:00,,0812.4,5.01,0.00,23.7,22.2,00.0,32.5,25.5,17.0,0000.0,0003.66,0001.64,0001.24
2023-03-11 02:33:00,,0812.5,4.99,0.00,23.7,22.2,00.0,32.5,25.5,17.0,0000.0,0003.51,0001.55,0001.15
2023-03-11 02:34:00,,0812.4,5.00,0.00,23.7,22.2,00.0,32.5,25.5,17.2,0000.0,0003.27,0001.45,0001.10
2023-03-11 02:35:00,,0812.4,5.00,0.00,23.7,22.2,00.0,32.5,25.5,17.2,0000.0,0003.05,0001.36,0001.04
2023-03-11 02:36:00,,0812.4,5.00,0.00,23.7,22.3,00.0,32.5,25.5,17.2,0000.0,0002.84,0001.25,0000.97
2023-03-11 02:37:00,,0812.5,4.99,0.00,23.7,22.3,00.0,32.5,25.5,17.2,0000.0,0002.59,0001.15,0000.91
2023-03-11 02:38:00,,0812.6,5.00,0.00,23.7,22.3,00.0,32.5,25.5,17.3,0000.0,0002.82,0001.09,0000.84
2023-03-11 02:39:00,,0812.6,4.99,0.00,23.7,22.3,00.0,32.5,25.5,17.4,0000.0,0003.00,0001.04,0000.80
2023-03-11 02:40:00,,0812.5,5.00,0.00,23.7,22.3,00.0,32.5,25.5,17.5,0000.0,0002.90,0000.99,0000.74
2023-03-11 02:41:00,,0812.5,5.00,0.00,23.7,22.3,00.0,32.5,25.5,17.5,0000.0,0002.90,0001.01,0000.75
2023-03-11 02:42:00,,0812.5,5.00,0.00,23.7,22.2,00.0,32.5,25.5,17.5,0000.0,0002.86,0001.19,0000.85
2023-03-11 02:43:00,,0812.5,5.00,0.00,23.7,22.2,00.0,32.5,25.5,17.5,0000.0,0003.09,0001.32,0000.93
2023-03-11 02:44:00,,0812.5,5.00,0.00,23.7,22.1,00.0,32.5,25.5,17.6,0000.0,0003.45,0001.43,0001.02
2023-03-11 02:45:00,,0812.4,5.00,0.00,23.7,22.1,00.0,32.5,25.5,17.6,0000.0,0003.69,0001.56,0001.10
2023-03-11 02:46:00,,0812.3,5.00,0.00,23.7,22.1,00.0,32.5,25.5,17.6,0000.0,0003.86,0001.68,0001.18
2023-03-11 02:47:00,,0812.2,5.04,0.00,23.7,22.0,00.0,32.5,25.5,17.6,0000.0,0004.05,0001.79,0001.26
2023-03-11 02:48:00,,0812.1,5.00,0.00,23.7,22.0,00.0,32.5,25.4,17.6,0000.0,0004.49,0001.88,0001.29
2023-03-11 02:49:00,,0812.1,5.01,0.00,23.7,22.0,00.0,32.4,25.4,17.6,0000.0,0004.61,0001.97,0001.34
2023-03-11 02:50:00,,0812.1,4.99,0.00,23.7,22.0,00.0,32.4,25.4,17.7,0000.0,0004.16,0002.00,0001.37
2023-03-11 02:51:00,,0812.1,5.00,0.00,23.7,22.0,00.0,32.4,25.4,17.7,0000.0,0004.33,0002.07,0001.41
2023-03-11 02:52:00,,0812.1,4.99,0.00,23.7,22.0,00.0,32.4,25.4,17.7,0000.0,0004.31,0002.05,0001.41
2023-03-11 02:53:00,,0812.1,4.99,0.00,23.6,22.0,00.0,32.4,25.4,17.7,0000.0,0004.17,0001.99,0001.38
2023-03-11 02:54:00,,0812.2,5.01,0.00,23.7,22.0,00.0,32.4,25.4,17.7,0000.0,0003.75,0001.89,0001.35
2023-03-11 02:55:00,,0812.4,5.01,0.00,23.6,22.0,00.0,32.4,25.4,17.7,0000.0,0003.29,0001.82,0001.31
2023-03-11 02:56:00,,0812.4,4.99,0.00,23.6,22.0,00.0,32.4,25.4,17.7,0000.0,0003.81,0001.79,0001.28
2023-03-11 02:57:00,,0812.3,5.00,0.00,23.6,21.9,00.0,32.4,25.3,17.8,0000.0,0004.17,0001.78,0001.26
2023-03-11 02:58:00,,0812.4,5.00,0.00,23.6,21.9,00.0,32.4,25.3,17.8,0000.0,0004.22,0001.75,0001.21
2023-03-11 02:59:00,,0812.4,5.00,0.00,23.6,21.9,00.0,32.4,25.3,17.8,0000.0,0003.93,0001.69,0001.20
